Location: Kitchener-Waterloo
(43.4500°N, 80.5000°W)
Time: 12:26:42
(UTC-05:00)

Daily predictions for brighter satellites

Satellite Brightness Start Highest point End
(mag) Time Altitude Azimuth Time Altitude Azimuth Time Altitude Azimuth
Cosmos 1980 3.8 17:42:26 10° SSW 17:48:07 87° WNW 17:53:50 10° NNE
Lacrosse 4 Rocket 2.7 17:46:43 10° N 17:49:47 20° NE 17:52:50 10° E
AQUARIUS 4.2 17:45:46 10° SSE 17:50:16 87° ENE 17:54:47 10° NNW
Cosmos 1626 3.4 17:51:56 10° SE 17:54:49 21° E 17:57:43 10° NE
Cosmos 1151 Rocket 3.2 17:54:29 10° N 17:58:46 80° W 18:03:04 10° S
Resurs 01 Rocket 3.5 18:00:53 10° ENE 18:02:15 11° ENE 18:03:37 10° NE
Cosmos 2219 Rocket 3.3 17:57:56 10° SW 18:03:20 45° WNW 18:08:44 10° NNE
Cosmos 2058 2.8 18:01:20 10° S 18:05:24 70° E 18:09:30 10° NNE
Meteor 1-11 4.3 18:00:46 10° S 18:06:26 73° E 18:12:13 10° NNE
Cosmos 1184 Rocket 4.2 18:04:10 10° SE 18:06:39 20° E 18:09:08 10° NE
CZ-4C R/B 4.4 18:03:03 10° NNW 18:06:41 15° NNE 18:10:32 10° NE
Cosmos 1726 2.8 18:03:27 10° NNW 18:07:11 60° W 18:10:54 10° S
Cosmos 2279 Rocket 4.0 18:01:10 10° N 18:07:23 72° E 18:13:36 10° SSE
MONITOR-E 4.1 18:06:35 10° SSE 18:09:43 67° ENE 18:12:53 10° N
Iridium 4 Rocket 4.5 18:08:21 10° ESE 18:11:07 17° E 18:13:49 10° NE
Cosmos 2333 Rocket 3.2 18:08:46 10° SW 18:14:11 47° WNW 18:19:40 10° NNE
Cosmos 1461 2.8 18:10:54 10° SSW 18:15:05 81° ESE 18:19:09 10° NE
Lacrosse 5 rocket 3.4 18:12:03 10° WNW 18:15:21 28° SW 18:18:46 10° S
Cosmos 304 Rocket 3.7 18:10:53 10° SSW 18:15:41 76° ESE 18:20:30 10° NNE
FREGAT/IRIS 4.2 18:14:48 10° ESE 18:16:53 17° ENE 18:18:59 10° NNE
Cosmos 2278 Rocket 3.6 18:13:06 10° NW 18:18:28 44° WSW 18:23:48 10° S
Cosmos 1242 Rocket 4.0 18:16:24 10° NNE 18:18:45 17° ENE 18:21:07 10° ESE
Cosmos 1455 2.6 18:16:51 10° N 18:20:26 38° ENE 18:24:01 10° SSE
Tiangong 1 3.4 18:20:01 10° S 18:21:19 12° SSE 18:22:37 10° ESE
Cosmos 1805 Rocket 3.6 18:18:15 10° S 18:22:39 65° E 18:27:05 10° NNE
Cosmos 1356 Rocket 3.5 18:20:46 10° S 18:24:37 49° E 18:28:29 10° NNE
SKYMED 2 3.5 18:20:52 10° NNE 18:25:12 67° E 18:29:31 10° S
Nadezhda 4 Rocket 4.2 18:21:49 10° SSE 18:27:49 51° E 18:33:54 10° NNE
Cosmos 2242 Rocket 4.1 18:25:09 10° N 18:29:13 35° ENE 18:33:18 10° SE
Thor Agena Rocket 4.1 18:24:16 10° N 18:29:26 62° WNW 18:34:31 10° SSW
Cosmos 1538 Rocket 4.0 18:26:08 10° S 18:31:24 70° ESE 18:36:45 10° NNE
Sich 1 3.2 18:29:09 10° S 18:33:29 54° E 18:37:49 10° NNE
Cosmos 1703 3.2 18:32:54 10° S 18:36:47 86° W 18:40:42 10° N
Coronas F rocket 1.8 18:36:02 10° SSE 18:37:55 32° ESE 18:37:55 32° ESE
Cosmos 2237 Rocket 3.6 18:38:01 10° WSW 18:43:11 37° NW 18:48:24 10° N
SJ-6B 3.1 18:40:48 10° SSE 18:44:45 49° ENE 18:48:46 10° N
Cosmos 1633 Rocket 3.0 18:40:56 10° S 18:45:17 64° E 18:49:39 10° NNE
Cosmos 2369 Rocket 3.1 18:40:35 10° N 18:45:20 27° NE 18:47:04 23° E
Cosmos 1680 Rocket 4.2 18:40:46 10° SSE 18:45:21 32° E 18:47:47 22° ENE
NOSS 3-1 (C) 4.4 18:44:40 10° SSE 18:49:03 23° ESE 18:50:00 22° E
Cosmos 1092 Rocket 4.1 18:45:03 10° SSE 18:51:12 56° E 18:57:22 10° NNE
SL-16 R/B 2.5 18:46:34 10° SW 18:52:11 67° WNW 18:57:51 10° NNE
Orbus 7S? 4.3 18:49:47 10° NW 18:53:50 66° NE 19:03:25 10° SE
Lacrosse 5 3.5 18:51:18 10° NW 18:54:55 19° N 18:56:21 17° NNE
ATLAS 3B R/B 4.3 18:54:01 10° NNW 18:58:09 16° NNE 19:00:18 14° NE
USA 215 3.3 18:56:43 19° ESE 19:01:28 64° NE 19:07:57 10° NW
ALOS 2.5 18:58:06 10° SE 19:02:33 46° ENE 19:07:02 10° N
Cosmos 773 Rocket 3.9 18:57:33 10° SSW 19:02:44 87° ESE 19:07:41 12° NNE
Meteor 1-28 Rocket 3.8 19:01:01 10° N 19:04:41 57° WNW 19:08:20 10° SSW
Abrixas 3.7 19:03:52 10° WNW 19:06:25 30° N 19:06:25 30° N
Cosmos 1862 Rocket 3.6 19:03:58 10° N 19:08:15 50° ENE 19:12:28 10° SSE
Cosmos 2084 Rocket 3.9 19:06:20 10° NNW 19:09:20 35° NNE 19:09:20 35° NNE
METEOR-M 4.2 19:04:49 10° S 19:10:10 80° WSW 19:15:34 10° NNW
FENGYUN 3A 3.6 19:07:03 10° SSE 19:12:18 58° ENE 19:17:35 10° N
Cosmos 292 Rocket 3.6 19:07:45 10° S 19:12:26 65° ESE 19:14:24 34° NE
COSMO-SKYMED 1 4.0 19:09:09 10° N 19:13:10 37° WNW 19:17:10 10° SW
Cosmos 2195 Rocket 4.5 19:07:30 10° SSE 19:13:24 54° E 19:19:23 10° NNE
NOAA 12 4.4 19:09:51 10° S 19:15:03 67° WSW 19:20:20 10° NNW
Cosmos 2112 Rocket 4.0 19:16:58 10° S 19:22:04 58° ESE 19:23:17 46° ENE
Cosmos 1869 3.9 19:19:42 10° NNW 19:23:42 59° W 19:27:40 10° S
Lacrosse 4 Rocket 2.5 19:24:50 10° NW 19:28:40 42° WSW 19:32:31 10° S
Cosmos 1943 3.6 19:23:52 10° S 19:28:36 42° SE 19:28:36 42° SE
ATLAS 5 CENTAUR R/B 3.2 19:24:45 10° NNW 19:29:30 31° NNE 19:29:30 31° NNE
Cosmos 1626 4.5 19:26:58 10° SW 19:30:04 24° WNW 19:33:12 10° NNW
Cosmos 1933 Rocket 3.5 19:29:25 10° S 19:33:52 84° W 19:35:24 41° N
Resurs 1-3 4.1 19:36:48 48° N 19:36:48 48° N 19:40:01 10° N
Resurs 01 Rocket 1.6 19:34:52 19° SSE 19:38:03 84° WSW 19:42:32 10° NNW
Cosmos 1417 Rocket 4.3 19:32:22 10° N 19:38:32 63° E 19:41:57 27° SSE
H-2A ROCKET BODY 4.1 19:24:52 10° WSW 19:41:53 31° SSW 19:45:24 19° SSE
Cosmos 1943 Rocket 3.4 19:41:42 10° N 19:44:33 26° N 19:44:33 26° N
USA 229 DEB 4.0 19:41:33 10° SW 19:48:21 63° NW 19:51:58 30° NNE
USA 229 4.0 19:41:38 10° SW 19:48:27 63° NW 19:52:02 30° NNE
Iridium 4 Rocket 4.3 19:46:41 10° SSW 19:50:48 39° W 19:54:47 10° NNW
Cosmos 1627 Rocket 4.5 19:45:14 10° S 19:51:24 80° W 19:57:34 10° N
Cosmos 1655 Rocket 3.9 19:45:54 10° S 19:52:15 81° E 19:58:37 10° N
Spot 2 Rocket 3.7 19:47:21 10° S 19:52:21 66° WSW 19:57:23 10° NNW
Tiangong 1 4.3 19:54:03 10° WSW 19:54:18 12° WSW 19:54:18 12° WSW
Cosmos 1603 4.3 19:51:42 10° SW 19:57:11 54° WNW 19:59:29 33° N
CZ-4C R/B 3.6 19:51:06 10° NNW 19:56:24 34° NNE 19:56:24 34° NNE
NOSS 3-1 (A) 4.0 19:56:18 10° SSW 20:00:05 40° S 20:00:05 40° S
S3M 4.2 20:06:50 10° N 20:12:05 63° N 20:12:05 63° N
Cosmos 2026 Rocket 4.4 20:10:26 10° SSW 20:16:31 57° WNW 20:22:33 10° N
BREEZE-M DEB (TANK) 4.4 20:10:17 10° WNW 20:21:03 54° NNW 20:21:03 54° NNW
Cosmos 2369 Rocket 3.0 20:24:11 10° NW 20:28:57 48° W 20:28:57 48° W
Lacrosse 5 4.1 20:34:12 10° NW 20:35:34 18° NNW 20:35:34 18° NNW
NOSS 3-1 (C) 4.2 20:33:23 10° SW 20:37:28 46° WSW 20:37:28 46° WSW
USA 215 4.1 20:44:04 41° SW 20:44:40 41° SW 20:50:49 10° WNW
ATLAS 3B R/B 4.3 20:44:37 10° NNW 20:47:33 24° N 20:47:33 24° N
ATLAS 5 CENTAUR R/B 4.4 21:09:07 10° NW 21:11:05 22° NW 21:11:05 22° NW
